Location: Allison Elementary School
(34.0784°N, 117.7317°W)
Time: 03:01:23
(UTC+00:00)

Cosmos 1328 Rocket - Pass Details

Date: 15 November 2019
Orbit: 600 x 628 km, 82.5° (Epoch: 14 December)

Event Time Altitude Azimuth Distance (km) Brightness Sun altitude
Rises 01:49:05 0° 168° (SSE) 2,898 7.0 -12.9°
Reaches altitude 10° 01:51:24 10° 161° (SSE) 1,994 6.1 -13.4°
Maximum altitude 01:55:32 40° 92° (E) 924 4.0 -14.2°
Drops below altitude 10° 01:59:41 10° 23° (NNE) 1,997 5.8 -15.1°
Enters shadow 02:00:10 - 21° (NNE) 2,183 6.0 -15.1°
